Flag for Germany Weather past 2 weeks in Cuxhaven, Lower Saxony, Germany

Now
63 °F

Sprinkles. Broken clouds.


Feels Like: 63 °F
Forecast: 58 / 64 °F
Wind: 20 mph from Northwest

Location: Nordholz

Current Time: Sep 1, 2015 at 3:03:15 PM

Latest Report: Sep 1, 2015 at 1:20 PM


Visibility: N/A

Pressure: 29.80 "Hg

Humidity: 83%

Dew point: 57 °F

Location of CuxhavenLocation

Historic Weather in Cuxhaven — Graph

°F

Cuxhaven temperature yesterday

Maximum temperature yesterday: 79 °F (at 4:20 PM)
Minimum temperature yesterday: 61 °F (at 12:20 AM)
Average temperature yesterday: 68 °F

Past Weeks' High & Low Weather Summary

 TemperatureHumidityPressure
High79 °F (Aug 31, 4:20 PM)100% (Aug 17, 3:20 PM)30.27 "Hg (Aug 17, 3:20 PM)
Low52 °F (Aug 29, 3:20 AM)34% (Aug 22, 3:20 PM)29.53 "Hg (Aug 24, 7:20 PM)
Average64 °F82%29.96 "Hg
* Reported Aug 17 1:20 PM — Sep 1 1:20 PM, Cuxhaven, Weather by CustomWeather, © 2015

Note: Actual official high and low records may vary slightly from our data, if they occured in-between our weather recording intervals... More about our weather records

Advertising

Cuxhaven weather history for previous 24 hours

 ConditionsComfort  
Time TempWeatherWind HumidityBarometerVisibility
1:20 PM
Tue, Sep 1
63 °FSprinkles. Broken clouds.20 mph83%29.80 "HgN/A
12:20 PM63 °FBroken clouds.16 mph83%29.80 "HgN/A
11:20 AM61 °FDrizzle. Broken clouds.16 mph94%29.77 "HgN/A
10:20 AM63 °FDrizzle. Broken clouds.16 mph83%29.74 "HgN/A
9:20 AM63 °FBroken clouds.16 mph88%29.74 "HgN/A
8:20 AM63 °FDrizzle. Broken clouds.14 mph94%29.71 "Hg4 mi
7:49 AM63 °FDrizzle. Broken clouds.17 mph94%29.71 "Hg6 mi
7:20 AM63 °FPassing clouds.16 mph100%29.68 "Hg4 mi
6:52 AM64 °FFog.14 mph94%29.68 "Hg3 mi
6:20 AM64 °FFog.12 mph94%29.68 "Hg2 mi
5:20 AM66 °FPartly cloudy.9 mph94%29.68 "Hg5 mi
4:20 AM66 °FPassing clouds.13 mph94%29.68 "Hg4 mi
3:20 AM66 °FMostly cloudy.9 mph94%29.71 "HgN/A
2:55 AM66 °FMostly cloudy.9 mph100%29.71 "HgN/A
2:20 AM64 °FPassing clouds.9 mph100%29.68 "HgN/A
1:20 AM64 °FPassing clouds.7 mph100%29.71 "HgN/A
12:20 AM64 °FPartly cloudy.3 mph100%29.71 "HgN/A
11:20 PM
Mon, Aug 31
64 °FPartly cloudy.5 mph100%29.71 "HgN/A
10:20 PM66 °FPartly cloudy.2 mph94%29.71 "HgN/A
9:20 PM66 °FStrong thunderstorms. Fog.26 mph88%29.77 "Hg1 mi
8:48 PM72 °FThundershowers. Partly sunny.14 mph83%29.68 "HgN/A
8:20 PM73 °FPartly sunny.7 mph83%29.68 "HgN/A
8:00 PM73 °FBroken clouds.6 mph83%29.68 "HgN/A
7:20 PM75 °FBroken clouds.6 mph78%29.71 "HgN/A
6:20 PM77 °FPartly sunny.9 mph69%29.74 "HgN/A
5:20 PM79 °FScattered clouds.9 mph70%29.77 "HgN/A
4:20 PM79 °FScattered clouds.12 mph65%29.77 "HgN/A
3:20 PM77 °FScattered clouds.12 mph69%29.83 "HgN/A
Weather by CustomWeather, © 2015

See weather overviewHow to use our weather pages